Regional Weather Roundup
Issued by NWS

Home | Current Version | Previous Version | Graphics & Text | Print | Product List | Glossary On
Versions: 1 2 3 4 5 6 7 8 9 10 11 12 13 14 15 16 17 18 19 20 21 22 23 24 25 26 27 28 29 30 31 32 33 34 35 36 37 38 39 40 41 42 43 44 45 46 47 48 49 50
000
ASUS43 KIND 260909
RWRIN

WEATHER ROUNDUP FOR INDIANA
NATIONAL WEATHER SERVICE INDIANAPOLIS IN
500 AM EDT SUN MAR 26 2017

NOTE: "FAIR" INDICATES FEW OR NO CLOUDS BELOW 12,000 FEET WITH NO
SIGNIFICANT WEATHER AND/OR OBSTRUCTIONS TO VISIBILITY.

* - STATION DOES NOT REPORT WEATHER SUCH AS PRECIPITATION OR FOG.

+ - STATION NOT QUALITY CONTROLLED BY THE NATIONAL WEATHER SERVICE.
    USE DATA WITH CAUTION...ESPECIALLY DEWPOINT AND RELATIVE
    HUMIDITY OBSERVATIONS.

INZ001>003-010>013-019-020-261000-
NORTHWEST INDIANA

CITY           SKY/WX    TMP DP  RH WIND       PRES   REMARKS
GARY /AIRPORT/ LGT RAIN  53  51  93 SE9       29.89F
KNOX *+        CLOUDY    46  36  66 E10       29.92F
LA PORTE +     DRIZZLE   46  45  96 E10       29.93F
MICHIGAN CITY+ LGT RAIN  46  46 100 E6        29.92F
MONTICELLO +   RAIN      51  49  95 E7        29.90F
RENSSELAER +   LGT RAIN  52  52 100 E13       29.89F
VALPARAISO     LGT RAIN  50  49  96 E10       29.91F FOG

$$

LMZ046-743>745-261000-
SOUTHERN LAKE MICHIGAN

STATION/POSITION TIME  TEMP    WIND        PRES    WAVE
                       AIR SEA DIR/SP/G            HT
                 (UTC) (F)     (DEG/KT/KT) (MB)    (FT)
BURNS HARBOR     0840   52     130/ 14/ 18 1012.9F
MICHIGAN CITY    0840   48     110/ 12/ 14   N/A

$$

INZ004-005-014>016-021>024-261000-
NORTH CENTRAL INDIANA

CITY           SKY/WX    TMP DP  RH WIND       PRES   REMARKS
GOSHEN         CLOUDY    44  40  85 E10       29.96F
LOGANSPORT +   LGT RAIN  46  46 100 E12       29.93F
PERU/GRISSOM   LGT RAIN  48  48 100 E10       29.92F
ROCHESTER +    LGT RAIN  48  46  93 E8        29.94F
SOUTH BEND     CLOUDY    44 N/A N/A E10       29.95F
WARSAW +       DRIZZLE   43  41  93 E7        29.95F

$$

INZ006>009-017-018-025>027-261000-
NORTHEAST INDIANA

CITY           SKY/WX    TMP DP  RH WIND       PRES   REMARKS
ANGOLA *+      CLOUDY    39  39 100 E9        29.98F
AUBURN +       CLOUDY    41  37  87 E8        29.99F FOG
FORT WAYNE     LGT RAIN  43  40  89 E7        29.98S FOG
HUNTINGTON +   LGT RAIN  43  42  95 E5        29.97S
KENDALLVILLE + CLOUDY    40  40  99 E9        29.98F FOG

$$

INZ028-029-035-036-043>045-051>053-261000-
WEST CENTRAL INDIANA

CITY           SKY/WX    TMP DP  RH WIND       PRES   REMARKS
CRAWFORDSVL +  RAIN      55  55 100 SE10      29.90S
GREENCASTLE +  LGT RAIN  55  55 100 SE8       29.90F
LAFAYETTE      RAIN      57  56  96 SE7       29.89F
TERRE HAUTE    LGT RAIN  58  56  93 SE10      29.87F

$$

INZ030>032-037>040-046>048-054>057-064-065-261000-
CENTRAL INDIANA

CITY           SKY/WX    TMP DP  RH WIND       PRES   REMARKS
CP ATTERBURY + CLOUDY    55  54  94 SE9       29.94F
FISHERS *+     CLOUDY    55  55 100 S8        29.93F
FRANKFORT +    HVY RAIN  59  57  94 S7        29.93S
GREENWOOD *+   CLOUDY    57  57 100 SE9       29.94F
INDIANAPOLIS   LGT RAIN  57  55  93 SE10      29.92F
-EAGLE CREEK   LGT RAIN  58  55  90 S6        29.91F
KOKOMO +       LGT RAIN  50  49  96 E7        29.94F FOG
MARION +       LGT RAIN  51  50  95 SE7       29.95F
MT COMFORT *+  CLOUDY    55  54  94 S9        29.94F
SHELBYVILLE    LGT RAIN  59  55  87 S13       29.94F
ZIONSVILLE +   RAIN      56  55  94 S12       29.93F

$$

INZ033-034-041-042-049-050-058-059-261000-
EAST CENTRAL INDIANA

CITY           SKY/WX    TMP DP  RH WIND       PRES   REMARKS
MUNCIE         RAIN      59  55  87 S13       29.96F FOG
RICHMOND +     CLOUDY    55  54  94 SW6       29.99S

$$

INZ060-061-067>069-081>083-085>088-261000-
SOUTHWEST INDIANA

CITY           SKY/WX    TMP DP  RH WIND       PRES   REMARKS
EVANSVILLE     CLOUDY    59  56  89 S9        29.90S
HUNTINGBURG *+ CLOUDY    58  56  93 SE10      29.91F
WASHINGTON +   CLOUDY    58  56  94 MISG      29.89F

$$

INZ062-063-066-070>080-084-089>092-261000-
SOUTH CENTRAL AND SOUTHEAST INDIANA

CITY           SKY/WX    TMP DP  RH WIND       PRES   REMARKS
BLOOMINGTON    LGT RAIN  57  54  89 S10       29.91F
MADISON *+     CLOUDY    57  55  94 S5        29.98F
NORTH VERNON + LGT RAIN N/A N/A N/A SE6       29.97F
SEYMOUR +      RAIN      59  57  94 SE7       29.95F

$$





USA.gov is the U.S. government's official web portal to all federal, state and local government web resources and services.